GFSWCAN_prec_precacc24_084.txt.gz
Total_Precipitation_Accumulation
0.09 0.07 0.07 0.06 0.07 0.08 0.09 0.09 0.09 0.09 0.10 0.11 0.21 0.28 0.26 0.28 0.34 0.59 0.45 0.16 0.28 0.37 0.08 0.02 0.04 0.06 0.08 0.17 0.35 0.33 0.48 0.28 0.15 0.11 0.11 0.10 0.12 0.12 0.15 0.25 0.10 0.02 0.05 0.04 0.05 0.09 0.05 0.11 0.23 0.52 0.68 0.69 0.71 0.79
0.06 0.05 0.06 0.07 0.08 0.07 0.07 0.08 0.08 0.09 0.11 0.13 0.11 0.13 0.27 0.32 0.45 0.58 0.57 0.22 0.16 0.32 0.18 0.06 0.02 0.03 0.05 0.14 0.43 0.55 0.46 0.53 0.55 0.30 0.22 0.18 0.17 0.14 0.10 0.23 0.24 0.16 0.04 0.06 0.04 0.08 0.18 0.10 0.18 0.36 0.47 0.45 0.36 0.46
0.07 0.12 0.15 0.13 0.10 0.10 0.09 0.09 0.09 0.09 0.09 0.13 0.17 0.13 0.12 0.25 0.47 0.78 0.59 0.23 0.35 0.68 0.29 0.09 0.04 0.00 0.00 0.02 0.16 0.33 0.35 0.42 0.49 0.42 0.46 0.24 0.19 0.23 0.29 0.36 0.43 0.58 0.24 0.30 0.25 0.51 0.18 0.08 0.13 0.16 0.20 0.21 0.10 0.09
0.20 0.15 0.09 0.06 0.05 0.04 0.04 0.04 0.04 0.06 0.07 0.10 0.17 0.25 0.17 0.16 0.41 0.93 0.63 0.30 0.33 0.40 0.19 0.05 0.00 0.02 0.01 0.03 0.07 0.12 0.17 0.30 0.33 0.36 0.40 0.34 0.30 0.34 0.63 0.45 0.49 0.90 0.43 0.43 0.61 1.29 0.61 0.53 0.54 0.42 0.17 0.15 0.07 0.07
0.09 0.07 0.05 0.03 0.04 0.04 0.05 0.08 0.11 0.08 0.09 0.11 0.13 0.24 0.32 0.24 0.46 0.84 0.59 0.24 0.16 0.18 0.24 0.10 0.01 0.00 0.00 0.01 0.03 0.10 0.14 0.18 0.27 0.25 0.15 0.15 0.18 0.40 0.87 0.46 0.54 0.63 0.77 0.68 0.84 1.07 0.90 0.74 0.46 0.30 0.14 0.07 0.03 0.02
0.07 0.05 0.04 0.03 0.03 0.03 0.03 0.04 0.10 0.16 0.10 0.12 0.14 0.16 0.38 0.43 0.70 1.37 2.08 1.15 0.27 0.24 0.32 0.27 0.08 0.02 0.00 0.00 0.02 0.08 0.16 0.22 0.26 0.19 0.10 0.13 0.18 0.51 0.87 0.59 0.64 0.68 0.85 0.66 0.67 0.71 0.55 0.38 0.21 0.11 0.04 0.01 0.00 0.00
0.06 0.05 0.04 0.05 0.06 0.04 0.04 0.05 0.07 0.14 0.17 0.14 0.19 0.18 0.45 0.69 0.75 0.51 0.45 0.33 0.19 0.32 0.53 0.28 0.11 0.06 0.02 0.03 0.07 0.11 0.20 0.31 0.27 0.23 0.10 0.08 0.22 0.47 0.70 0.67 0.64 0.63 0.59 0.43 0.36 0.27 0.15 0.09 0.04 0.01 0.00 0.00 0.01 0.01
0.07 0.04 0.04 0.06 0.08 0.04 0.05 0.09 0.09 0.10 0.19 0.19 0.28 0.34 0.75 1.00 0.63 0.42 0.07 0.01 0.06 0.47 0.36 0.25 0.20 0.21 0.12 0.09 0.16 0.16 0.28 0.33 0.43 0.29 0.15 0.15 0.40 0.39 0.39 0.30 0.20 0.16 0.16 0.09 0.06 0.02 0.02 0.01 0.00 0.00 0.00 0.02 0.09 0.13
0.07 0.06 0.06 0.05 0.07 0.09 0.10 0.12 0.13 0.21 0.29 0.41 0.71 1.30 2.17 1.41 0.88 0.45 0.16 0.12 0.16 0.34 0.24 0.14 0.18 0.25 0.22 0.16 0.22 0.18 0.22 0.40 0.25 0.24 0.18 0.25 0.30 0.41 0.34 0.06 0.03 0.01 0.01 0.01 0.00 0.00 0.00 0.00 0.00 0.00 0.00 0.01 0.03 0.06
0.10 0.09 0.10 0.13 0.14 0.13 0.18 0.26 0.37 0.56 0.85 1.17 1.34 1.62 1.73 0.87 0.33 0.55 1.18 1.16 0.92 0.39 0.15 0.12 0.24 0.16 0.38 0.33 0.18 0.32 0.12 0.15 0.21 0.11 0.11 0.18 0.20 0.12 0.02 0.01 0.00 0.00 0.00 0.00 0.01 0.02 0.02 0.02 0.02 0.02 0.03 0.03 0.04 0.06
0.12 0.11 0.13 0.16 0.19 0.25 0.41 0.49 0.62 0.82 0.90 0.86 1.03 1.00 0.89 0.55 0.44 0.61 0.69 0.56 0.32 0.15 0.05 0.09 0.32 0.32 0.41 0.45 0.09 0.20 0.22 0.12 0.13 0.10 0.15 0.16 0.09 0.08 0.02 0.00 0.00 0.00 0.00 0.00 0.01 0.03 0.03 0.04 0.04 0.06 0.08 0.11 0.11 0.12
0.10 0.18 0.22 0.26 0.30 0.40 0.51 0.65 0.58 0.57 0.61 0.27 0.42 0.85 1.01 0.80 0.57 0.31 0.21 0.15 0.10 0.17 0.19 0.14 0.25 0.26 0.39 0.55 0.16 0.13 0.24 0.19 0.24 0.24 0.18 0.13 0.11 0.03 0.01 0.01 0.01 0.01 0.01 0.01 0.01 0.02 0.02 0.03 0.04 0.05 0.07 0.10 0.12 0.12
0.12 0.23 0.40 0.50 0.50 0.55 0.70 0.66 0.49 0.24 0.10 0.06 0.12 0.45 0.42 0.34 0.18 0.15 0.10 0.06 0.10 0.12 0.13 0.15 0.16 0.27 0.40 0.40 0.21 0.08 0.14 0.18 0.05 0.11 0.12 0.08 0.06 0.02 0.02 0.01 0.01 0.01 0.01 0.02 0.03 0.04 0.04 0.06 0.06 0.06 0.08 0.10 0.09 0.09
0.19 0.20 0.22 0.32 0.41 0.47 0.60 0.69 0.42 0.13 0.05 0.14 0.17 0.18 0.11 0.06 0.04 0.05 0.06 0.03 0.04 0.09 0.13 0.10 0.07 0.23 0.28 0.12 0.08 0.04 0.04 0.04 0.06 0.06 0.05 0.08 0.05 0.04 0.03 0.02 0.02 0.04 0.04 0.04 0.06 0.06 0.07 0.08 0.09 0.10 0.10 0.11 0.09 0.10
0.09 0.09 0.16 0.27 0.34 0.49 0.54 0.40 0.20 0.06 0.02 0.03 0.02 0.02 0.02 0.05 0.05 0.07 0.05 0.06 0.10 0.15 0.13 0.04 0.05 0.10 0.04 0.02 0.01 0.01 0.02 0.02 0.04 0.06 0.07 0.07 0.04 0.03 0.04 0.05 0.05 0.07 0.08 0.08 0.10 0.09 0.10 0.11 0.09 0.10 0.13 0.12 0.11 0.11
0.05 0.12 0.17 0.21 0.17 0.21 0.19 0.11 0.05 0.03 0.00 0.00 0.02 0.05 0.08 0.10 0.12 0.10 0.11 0.14 0.19 0.19 0.05 0.03 0.07 0.06 0.01 0.01 0.00 0.02 0.04 0.03 0.06 0.05 0.06 0.04 0.04 0.04 0.06 0.07 0.08 0.09 0.09 0.10 0.10 0.10 0.10 0.11 0.10 0.11 0.12 0.11 0.11 0.10
0.02 0.06 0.19 0.21 0.18 0.11 0.08 0.04 0.03 0.01 0.00 0.01 0.04 0.06 0.08 0.06 0.10 0.13 0.16 0.17 0.19 0.14 0.05 0.02 0.03 0.03 0.01 0.00 0.01 0.02 0.05 0.05 0.06 0.08 0.06 0.05 0.05 0.06 0.07 0.07 0.08 0.08 0.08 0.09 0.09 0.10 0.09 0.10 0.09 0.08 0.07 0.08 0.05 0.03
0.01 0.02 0.11 0.17 0.10 0.05 0.03 0.02 0.01 0.00 0.02 0.04 0.05 0.10 0.06 0.09 0.10 0.14 0.14 0.07 0.06 0.01 0.00 0.00 0.00 0.00 0.02 0.03 0.05 0.09 0.10 0.11 0.09 0.08 0.08 0.09 0.08 0.08 0.07 0.07 0.08 0.08 0.07 0.08 0.08 0.08 0.08 0.09 0.05 0.03 0.01 0.00 0.00 0.00
0.03 0.04 0.09 0.13 0.05 0.02 0.00 0.00 0.00 0.01 0.04 0.05 0.09 0.09 0.08 0.11 0.12 0.12 0.06 0.02 0.01 0.00 0.00 0.00 0.01 0.03 0.06 0.08 0.07 0.09 0.09 0.08 0.09 0.10 0.09 0.07 0.06 0.05 0.05 0.06 0.06 0.06 0.06 0.07 0.05 0.03 0.02 0.01 0.01 0.00 0.00 0.01 0.02 0.02
0.15 0.09 0.11 0.12 0.01 0.00 0.00 0.00 0.00 0.00 0.02 0.04 0.06 0.06 0.05 0.10 0.10 0.05 0.01 0.00 0.00 0.00 0.01 0.03 0.10 0.13 0.09 0.10 0.04 0.04 0.03 0.03 0.02 0.03 0.06 0.06 0.04 0.04 0.06 0.05 0.03 0.03 0.02 0.01 0.00 0.00 0.00 0.00 0.00 0.00 0.00 0.00 0.01 0.02
0.10 0.08 0.07 0.04 0.00 0.00 0.00 0.00 0.00 0.00 0.02 0.04 0.04 0.02 0.06 0.04 0.02 0.01 0.00 0.00 0.00 0.03 0.07 0.11 0.11 0.13 0.05 0.04 0.03 0.02 0.05 0.04 0.04 0.02 0.02 0.04 0.03 0.02 0.01 0.01 0.01 0.01 0.00 0.00 0.00 0.00 0.00 0.00 0.00 0.00 0.00 0.01 0.01 0.01
0.03 0.01 0.00 0.00 0.00 0.00 0.00 0.00 0.00 0.00 0.02 0.03 0.03 0.02 0.02 0.03 0.01 0.00 0.00 0.00 0.06 0.12 0.10 0.08 0.06 0.03 0.01 0.02 0.02 0.01 0.01 0.00 0.00 0.01 0.01 0.01 0.01 0.01 0.00 0.00 0.00 0.00 0.00 0.00 0.00 0.00 0.00 0.00 0.00 0.00 0.00 0.00 0.00 0.00
0.00 0.00 0.00 0.00 0.00 0.00 0.03 0.04 0.02 0.02 0.01 0.02 0.00 0.00 0.00 0.00 0.00 0.00 0.00 0.03 0.11 0.13 0.06 0.02 0.02 0.01 0.01 0.01 0.00 0.00 0.00 0.00 0.00 0.00 0.00 0.00 0.00 0.00 0.00 0.00 0.00 0.00 0.00 0.00 0.00 0.00 0.00 0.00 0.00 0.00 0.00 0.00 0.01 0.01
0.00 0.00 0.00 0.00 0.00 0.03 0.02 0.01 0.00 0.00 0.00 0.00 0.00 0.00 0.00 0.00 0.00 0.00 0.02 0.03 0.08 0.07 0.02 0.02 0.01 0.01 0.01 0.00 0.00 0.00 0.00 0.00 0.00 0.00 0.00 0.00 0.00 0.00 0.00 0.00 0.00 0.00 0.00 0.00 0.00 0.00 0.00 0.01 0.00 0.01 0.00 0.00 0.01 0.00
0.00 0.00 0.00 0.00 0.00 0.00 0.00 0.00 0.00 0.00 0.00 0.00 0.00 0.00 0.00 0.00 0.00 0.00 0.01 0.04 0.05 0.05 0.03 0.02 0.02 0.01 0.01 0.01 0.00 0.00 0.00 0.00 0.00 0.00 0.00 0.00 0.00 0.00 0.00 0.00 0.00 0.00 0.00 0.01 0.01 0.00 0.00 0.00 0.00 0.00 0.00 0.00 0.00 0.00
0.00 0.01 0.00 0.01 0.00 0.00 0.00 0.00 0.00 0.00 0.00 0.00 0.00 0.00 0.00 0.00 0.00 0.02 0.02 0.03 0.03 0.03 0.03 0.03 0.01 0.00 0.00 0.00 0.00 0.00 0.00 0.00 0.00 0.00 0.00 0.00 0.00 0.00 0.00 0.00 0.00 0.01 0.00 0.00 0.01 0.01 0.02 0.01 0.00 0.00 0.00 0.00 0.01 0.00
0.00 0.01 0.00 0.00 0.01 0.00 0.00 0.00 0.00 0.00 0.00 0.00 0.00 0.00 0.00 0.00 0.01 0.06 0.10 0.03 0.02 0.04 0.02 0.01 0.00 0.00 0.00 0.00 0.00 0.00 0.00 0.00 0.00 0.00 0.00 0.00 0.00 0.00 0.00 0.00 0.00 0.00 0.00 0.00 0.00 0.00 0.00 0.00 0.00 0.00 0.00 0.01 0.01 0.02
0.00 0.00 0.00 0.00 0.00 0.00 0.00 0.00 0.00 0.01 0.01 0.01 0.00 0.00 0.00 0.00 0.05 0.11 0.10 0.08 0.01 0.00 0.00 0.00 0.00 0.00 0.00 0.00 0.00 0.00 0.00 0.00 0.00 0.00 0.00 0.00 0.00 0.00 0.00 0.00 0.00 0.00 0.00 0.00 0.00 0.00 0.01 0.00 0.00 0.01 0.01 0.01 0.00 0.01
0.00 0.00 0.00 0.00 0.00 0.00 0.01 0.01 0.01 0.02 0.02 0.01 0.00 0.01 0.03 0.07 0.10 0.09 0.08 0.03 0.01 0.00 0.00 0.00 0.01 0.00 0.00 0.00 0.00 0.00 0.00 0.00 0.00 0.00 0.00 0.01 0.02 0.01 0.01 0.00 0.00 0.00 0.00 0.00 0.01 0.01 0.02 0.01 0.01 0.01 0.00 0.00 0.01 0.01
0.00 0.00 0.00 0.00 0.01 0.03 0.07 0.05 0.04 0.03 0.01 0.01 0.01 0.04 0.07 0.19 0.27 0.14 0.06 0.04 0.02 0.01 0.01 0.01 0.01 0.00 0.00 0.00 0.00 0.00 0.00 0.00 0.00 0.00 0.00 0.00 0.01 0.01 0.01 0.01 0.01 0.00 0.00 0.00 0.00 0.00 0.01 0.00 0.00 0.00 0.01 0.01 0.01 0.01
0.00 0.00 0.00 0.00 0.04 0.07 0.07 0.04 0.02 0.02 0.01 0.01 0.00 0.01 0.05 0.14 0.15 0.16 0.10 0.05 0.02 0.01 0.01 0.01 0.01 0.00 0.00 0.00 0.00 0.00 0.01 0.00 0.00 0.00 0.00 0.00 0.00 0.00 0.00 0.00 0.00 0.00 0.00 0.00 0.00 0.00 0.00 0.00 0.00 0.00 0.00 0.00 0.00 0.00
0.00 0.00 0.00 0.01 0.05 0.05 0.09 0.03 0.01 0.03 0.02 0.01 0.01 0.01 0.01 0.01 0.03 0.06 0.07 0.08 0.04 0.02 0.02 0.01 0.01 0.01 0.00 0.00 0.00 0.00 0.00 0.00 0.00 0.00 0.00 0.00 0.00 0.00 0.00 0.00 0.00 0.00 0.00 0.00 0.00 0.00 0.00 0.00 0.00 0.00 0.00 0.00 0.00 0.00
0.00 0.00 0.00 0.00 0.01 0.02 0.03 0.02 0.01 0.02 0.02 0.02 0.03 0.04 0.02 0.01 0.02 0.03 0.03 0.05 0.07 0.03 0.02 0.01 0.00 0.00 0.00 0.00 0.00 0.00 0.00 0.00 0.00 0.00 0.00 0.00 0.00 0.00 0.00 0.00 0.00 0.00 0.00 0.00 0.00 0.00 0.00 0.00 0.00 0.00 0.00 0.00 0.00 0.00

GFSWCAN_prec_precacc24_090.txt.gz
Total_Precipitation_Accumulation
0.06 0.05 0.06 0.05 0.05 0.05 0.05 0.06 0.07 0.08 0.07 0.08 0.15 0.18 0.14 0.12 0.22 0.34 0.12 0.11 0.21 0.17 0.02 0.01 0.03 0.05 0.07 0.15 0.31 0.30 0.37 0.21 0.12 0.09 0.11 0.10 0.13 0.13 0.15 0.25 0.09 0.02 0.05 0.04 0.04 0.06 0.05 0.12 0.23 0.55 0.81 0.90 0.96 1.11
0.06 0.05 0.05 0.05 0.06 0.05 0.05 0.05 0.05 0.06 0.08 0.10 0.10 0.12 0.21 0.20 0.26 0.27 0.16 0.09 0.16 0.17 0.05 0.02 0.01 0.02 0.04 0.14 0.40 0.52 0.43 0.56 0.58 0.34 0.27 0.21 0.18 0.15 0.11 0.25 0.24 0.21 0.10 0.11 0.10 0.11 0.22 0.13 0.21 0.44 0.58 0.67 0.66 0.76
0.05 0.08 0.10 0.10 0.10 0.08 0.06 0.06 0.06 0.06 0.07 0.11 0.16 0.13 0.10 0.20 0.33 0.33 0.14 0.10 0.25 0.34 0.13 0.02 0.00 0.00 0.00 0.01 0.15 0.32 0.32 0.41 0.50 0.44 0.49 0.27 0.20 0.26 0.37 0.40 0.43 0.59 0.25 0.38 0.45 0.64 0.24 0.12 0.17 0.26 0.37 0.49 0.40 0.39
0.10 0.08 0.08 0.08 0.06 0.04 0.04 0.03 0.03 0.04 0.04 0.08 0.14 0.23 0.17 0.15 0.33 0.48 0.25 0.12 0.11 0.17 0.08 0.01 0.00 0.00 0.00 0.01 0.05 0.11 0.16 0.29 0.33 0.36 0.39 0.35 0.32 0.45 0.78 0.47 0.49 0.90 0.45 0.50 0.77 1.40 0.68 0.57 0.63 0.58 0.39 0.38 0.31 0.30
0.06 0.06 0.06 0.05 0.04 0.03 0.03 0.04 0.06 0.07 0.07 0.08 0.11 0.22 0.37 0.31 0.39 0.59 0.37 0.10 0.04 0.06 0.14 0.08 0.01 0.00 0.00 0.00 0.02 0.09 0.12 0.15 0.23 0.20 0.13 0.13 0.19 0.50 0.96 0.46 0.54 0.65 0.84 0.75 0.92 1.18 1.00 0.85 0.60 0.44 0.30 0.24 0.16 0.10
0.07 0.05 0.04 0.04 0.04 0.02 0.02 0.03 0.04 0.06 0.06 0.09 0.10 0.14 0.38 0.54 0.69 1.13 1.68 0.74 0.11 0.09 0.20 0.21 0.08 0.02 0.00 0.00 0.01 0.07 0.12 0.16 0.19 0.15 0.07 0.11 0.17 0.61 1.00 0.65 0.67 0.73 0.96 0.83 0.79 0.84 0.67 0.53 0.35 0.25 0.16 0.14 0.09 0.04
0.05 0.04 0.04 0.05 0.04 0.03 0.02 0.02 0.04 0.07 0.08 0.10 0.13 0.14 0.42 0.63 0.62 0.46 0.38 0.23 0.10 0.23 0.42 0.20 0.10 0.05 0.02 0.02 0.05 0.08 0.13 0.19 0.17 0.15 0.08 0.08 0.21 0.46 0.78 0.76 0.68 0.71 0.71 0.57 0.50 0.37 0.27 0.25 0.15 0.09 0.05 0.03 0.02 0.00
0.07 0.06 0.04 0.04 0.03 0.03 0.04 0.04 0.04 0.05 0.08 0.13 0.16 0.27 0.59 0.89 0.73 0.43 0.07 0.01 0.05 0.37 0.29 0.18 0.14 0.18 0.11 0.08 0.13 0.14 0.22 0.24 0.22 0.10 0.05 0.15 0.37 0.38 0.47 0.42 0.31 0.26 0.26 0.18 0.16 0.08 0.08 0.05 0.02 0.00 0.00 0.00 0.00 0.00
0.08 0.06 0.05 0.04 0.03 0.04 0.05 0.06 0.07 0.09 0.17 0.24 0.47 0.99 1.80 1.22 0.60 0.39 0.15 0.11 0.14 0.29 0.22 0.11 0.09 0.22 0.20 0.16 0.19 0.15 0.17 0.27 0.14 0.10 0.04 0.13 0.21 0.37 0.36 0.11 0.08 0.04 0.04 0.06 0.04 0.01 0.00 0.00 0.00 0.00 0.00 0.00 0.00 0.01
0.08 0.05 0.04 0.05 0.07 0.06 0.09 0.13 0.15 0.28 0.51 0.89 1.26 1.40 1.41 0.56 0.28 0.58 1.09 0.98 0.84 0.43 0.16 0.12 0.20 0.10 0.27 0.37 0.14 0.28 0.11 0.12 0.16 0.07 0.08 0.06 0.08 0.09 0.02 0.00 0.00 0.00 0.00 0.00 0.01 0.02 0.01 0.01 0.01 0.01 0.01 0.01 0.01 0.01
0.09 0.06 0.06 0.07 0.08 0.12 0.27 0.34 0.45 0.71 0.96 1.19 1.09 0.76 0.52 0.42 0.43 0.77 0.63 0.53 0.34 0.18 0.05 0.06 0.25 0.25 0.20 0.45 0.07 0.17 0.21 0.11 0.12 0.08 0.14 0.12 0.07 0.07 0.01 0.00 0.00 0.00 0.00 0.00 0.01 0.02 0.01 0.01 0.01 0.01 0.01 0.02 0.02 0.02
0.09 0.11 0.14 0.19 0.24 0.33 0.43 0.57 0.59 0.75 0.82 0.45 0.32 0.57 0.83 0.72 0.63 0.45 0.24 0.13 0.09 0.07 0.03 0.03 0.16 0.15 0.19 0.49 0.11 0.07 0.20 0.21 0.24 0.24 0.17 0.12 0.09 0.03 0.00 0.00 0.00 0.00 0.00 0.00 0.00 0.01 0.01 0.01 0.01 0.01 0.01 0.02 0.03 0.04
0.10 0.16 0.29 0.38 0.41 0.49 0.65 0.67 0.61 0.47 0.23 0.21 0.21 0.58 0.49 0.41 0.31 0.20 0.09 0.04 0.05 0.02 0.01 0.02 0.09 0.10 0.26 0.36 0.24 0.08 0.16 0.23 0.07 0.10 0.09 0.06 0.05 0.02 0.01 0.01 0.00 0.00 0.00 0.01 0.01 0.01 0.01 0.02 0.01 0.01 0.03 0.04 0.03 0.04
0.25 0.29 0.23 0.30 0.39 0.46 0.64 0.78 0.71 0.40 0.26 0.33 0.28 0.31 0.14 0.10 0.04 0.04 0.05 0.02 0.01 0.01 0.01 0.02 0.04 0.15 0.25 0.14 0.17 0.06 0.05 0.04 0.06 0.05 0.04 0.07 0.04 0.03 0.01 0.01 0.01 0.01 0.01 0.01 0.02 0.02 0.02 0.02 0.03 0.03 0.03 0.04 0.03 0.04
0.31 0.17 0.19 0.28 0.35 0.54 0.63 0.60 0.62 0.20 0.28 0.21 0.03 0.03 0.01 0.03 0.03 0.03 0.02 0.03 0.04 0.06 0.06 0.03 0.06 0.15 0.06 0.05 0.02 0.02 0.02 0.02 0.04 0.05 0.06 0.06 0.02 0.02 0.02 0.01 0.01 0.02 0.02 0.02 0.02 0.02 0.03 0.03 0.03 0.04 0.04 0.04 0.04 0.04
0.10 0.18 0.27 0.23 0.20 0.35 0.47 0.66 0.53 0.20 0.14 0.08 0.02 0.04 0.07 0.08 0.10 0.08 0.07 0.10 0.13 0.15 0.05 0.05 0.11 0.12 0.05 0.01 0.00 0.02 0.04 0.03 0.05 0.04 0.04 0.02 0.02 0.02 0.02 0.02 0.02 0.02 0.02 0.02 0.02 0.02 0.02 0.02 0.03 0.03 0.04 0.03 0.04 0.03
0.06 0.19 0.40 0.28 0.31 0.39 0.49 0.56 0.41 0.32 0.12 0.06 0.04 0.05 0.07 0.05 0.07 0.10 0.13 0.15 0.17 0.14 0.07 0.02 0.03 0.03 0.04 0.00 0.01 0.02 0.05 0.05 0.05 0.06 0.03 0.02 0.01 0.01 0.01 0.01 0.02 0.02 0.02 0.02 0.02 0.02 0.02 0.02 0.02 0.02 0.03 0.02 0.01 0.00
0.03 0.19 0.31 0.29 0.28 0.34 0.40 0.32 0.27 0.16 0.03 0.05 0.05 0.08 0.05 0.07 0.08 0.11 0.12 0.06 0.08 0.02 0.00 0.00 0.00 0.00 0.01 0.02 0.03 0.05 0.06 0.06 0.04 0.03 0.03 0.03 0.03 0.03 0.02 0.02 0.02 0.02 0.01 0.02 0.02 0.02 0.03 0.04 0.02 0.01 0.00 0.00 0.00 0.00
0.08 0.22 0.34 0.30 0.18 0.17 0.31 0.20 0.02 0.01 0.04 0.06 0.09 0.09 0.08 0.09 0.09 0.08 0.04 0.01 0.00 0.00 0.00 0.00 0.00 0.01 0.03 0.04 0.03 0.04 0.04 0.04 0.06 0.05 0.04 0.02 0.01 0.01 0.01 0.01 0.01 0.02 0.02 0.03 0.02 0.01 0.01 0.01 0.01 0.00 0.00 0.01 0.02 0.02
0.22 0.21 0.24 0.21 0.06 0.03 0.05 0.04 0.00 0.00 0.03 0.04 0.06 0.06 0.05 0.08 0.09 0.05 0.01 0.00 0.00 0.00 0.00 0.02 0.07 0.09 0.06 0.06 0.02 0.02 0.02 0.01 0.01 0.02 0.04 0.04 0.02 0.02 0.03 0.02 0.01 0.01 0.01 0.01 0.00 0.00 0.00 0.00 0.00 0.00 0.00 0.00 0.01 0.02
0.12 0.12 0.10 0.05 0.02 0.00 0.00 0.00 0.00 0.00 0.02 0.04 0.04 0.02 0.05 0.03 0.02 0.01 0.00 0.00 0.01 0.02 0.05 0.08 0.08 0.09 0.03 0.02 0.02 0.01 0.04 0.04 0.03 0.01 0.02 0.03 0.02 0.00 0.00 0.01 0.01 0.01 0.01 0.00 0.00 0.00 0.00 0.00 0.00 0.00 0.00 0.00 0.00 0.00
0.06 0.02 0.00 0.00 0.00 0.00 0.00 0.00 0.00 0.00 0.02 0.03 0.03 0.01 0.02 0.03 0.02 0.01 0.00 0.00 0.05 0.09 0.07 0.05 0.04 0.02 0.01 0.01 0.00 0.00 0.00 0.00 0.00 0.00 0.00 0.00 0.02 0.01 0.00 0.00 0.00 0.00 0.00 0.00 0.00 0.00 0.00 0.00 0.00 0.00 0.00 0.00 0.00 0.00
0.02 0.01 0.01 0.00 0.00 0.00 0.02 0.03 0.01 0.01 0.01 0.02 0.00 0.00 0.00 0.00 0.00 0.00 0.00 0.02 0.08 0.08 0.03 0.01 0.01 0.00 0.01 0.00 0.00 0.00 0.00 0.00 0.00 0.00 0.00 0.00 0.00 0.00 0.00 0.00 0.00 0.00 0.00 0.00 0.00 0.00 0.00 0.00 0.00 0.00 0.00 0.00 0.01 0.01
0.00 0.02 0.03 0.00 0.00 0.04 0.02 0.01 0.00 0.00 0.01 0.01 0.00 0.00 0.00 0.00 0.00 0.00 0.01 0.03 0.06 0.05 0.02 0.01 0.00 0.01 0.00 0.00 0.00 0.00 0.00 0.00 0.00 0.00 0.00 0.00 0.00 0.00 0.00 0.00 0.00 0.00 0.00 0.00 0.00 0.00 0.00 0.00 0.00 0.01 0.00 0.00 0.01 0.00
0.01 0.04 0.03 0.02 0.00 0.00 0.00 0.00 0.00 0.00 0.00 0.00 0.00 0.00 0.00 0.00 0.00 0.00 0.01 0.04 0.05 0.05 0.03 0.02 0.02 0.01 0.01 0.01 0.00 0.00 0.00 0.00 0.00 0.00 0.00 0.00 0.00 0.00 0.00 0.00 0.00 0.00 0.00 0.01 0.01 0.00 0.00 0.00 0.00 0.00 0.00 0.00 0.00 0.00
0.01 0.02 0.04 0.03 0.01 0.00 0.00 0.00 0.00 0.00 0.00 0.00 0.00 0.00 0.01 0.00 0.00 0.01 0.02 0.03 0.03 0.03 0.04 0.04 0.01 0.00 0.00 0.00 0.00 0.00 0.00 0.00 0.00 0.00 0.00 0.00 0.00 0.00 0.00 0.00 0.00 0.01 0.00 0.00 0.00 0.00 0.01 0.01 0.01 0.01 0.01 0.01 0.01 0.01
0.00 0.02 0.03 0.01 0.02 0.01 0.00 0.00 0.00 0.00 0.00 0.00 0.00 0.01 0.00 0.00 0.01 0.05 0.09 0.03 0.03 0.04 0.02 0.01 0.00 0.00 0.00 0.00 0.00 0.00 0.00 0.00 0.00 0.00 0.00 0.00 0.00 0.00 0.00 0.00 0.00 0.00 0.00 0.00 0.00 0.00 0.00 0.00 0.00 0.00 0.00 0.01 0.01 0.02
0.00 0.00 0.01 0.01 0.00 0.00 0.00 0.00 0.00 0.01 0.01 0.01 0.00 0.00 0.00 0.00 0.05 0.11 0.10 0.07 0.01 0.00 0.00 0.00 0.00 0.00 0.00 0.00 0.00 0.00 0.00 0.00 0.00 0.00 0.00 0.00 0.00 0.00 0.00 0.00 0.00 0.00 0.00 0.00 0.00 0.00 0.00 0.00 0.00 0.00 0.01 0.01 0.00 0.01
0.00 0.00 0.00 0.00 0.00 0.00 0.01 0.01 0.01 0.02 0.02 0.02 0.00 0.01 0.02 0.06 0.09 0.09 0.08 0.03 0.01 0.00 0.00 0.00 0.01 0.00 0.00 0.00 0.00 0.00 0.00 0.00 0.00 0.00 0.00 0.01 0.02 0.01 0.00 0.00 0.00 0.00 0.00 0.00 0.01 0.01 0.01 0.01 0.01 0.01 0.00 0.00 0.00 0.00
0.00 0.00 0.00 0.00 0.01 0.02 0.06 0.04 0.04 0.03 0.02 0.01 0.01 0.03 0.06 0.16 0.24 0.13 0.08 0.06 0.03 0.02 0.01 0.01 0.01 0.00 0.00 0.00 0.00 0.00 0.00 0.00 0.00 0.00 0.00 0.00 0.01 0.01 0.01 0.00 0.00 0.00 0.00 0.00 0.00 0.00 0.01 0.00 0.00 0.00 0.00 0.00 0.00 0.00
0.00 0.00 0.00 0.00 0.03 0.06 0.07 0.04 0.03 0.02 0.01 0.01 0.00 0.01 0.05 0.13 0.16 0.18 0.13 0.08 0.03 0.01 0.01 0.01 0.01 0.00 0.00 0.00 0.00 0.00 0.01 0.00 0.00 0.00 0.00 0.00 0.00 0.00 0.00 0.00 0.00 0.00 0.00 0.00 0.00 0.00 0.00 0.00 0.00 0.00 0.00 0.00 0.00 0.00
0.00 0.00 0.00 0.00 0.04 0.05 0.08 0.03 0.01 0.03 0.03 0.01 0.02 0.01 0.01 0.01 0.04 0.07 0.09 0.10 0.07 0.03 0.02 0.01 0.01 0.01 0.00 0.00 0.00 0.00 0.00 0.00 0.00 0.00 0.00 0.00 0.00 0.00 0.00 0.00 0.00 0.00 0.00 0.00 0.00 0.00 0.00 0.00 0.00 0.00 0.00 0.00 0.00 0.00
0.00 0.00 0.00 0.00 0.01 0.02 0.03 0.02 0.01 0.02 0.02 0.02 0.04 0.04 0.02 0.01 0.02 0.04 0.04 0.06 0.09 0.05 0.02 0.01 0.00 0.00 0.00 0.00 0.00 0.00 0.00 0.00 0.00 0.00 0.00 0.00 0.00 0.00 0.00 0.00 0.00 0.00 0.00 0.00 0.00 0.00 0.00 0.00 0.00 0.00 0.00 0.00 0.00 0.00

GFSWCAN_prec_precacc24_093.txt.gz
Total_Precipitation_Accumulation
0.05 0.04 0.05 0.05 0.04 0.05 0.04 0.04 0.05 0.08 0.06 0.05 0.08 0.12 0.09 0.08 0.21 0.33 0.10 0.08 0.18 0.12 0.01 0.00 0.01 0.03 0.06 0.10 0.21 0.22 0.34 0.15 0.05 0.05 0.09 0.08 0.12 0.12 0.17 0.25 0.10 0.05 0.10 0.07 0.05 0.07 0.05 0.11 0.23 0.54 0.83 0.92 0.99 1.14
0.05 0.04 0.05 0.05 0.06 0.05 0.04 0.05 0.05 0.05 0.06 0.06 0.05 0.09 0.16 0.13 0.22 0.24 0.09 0.04 0.14 0.14 0.01 0.01 0.01 0.00 0.02 0.10 0.34 0.42 0.38 0.50 0.56 0.31 0.24 0.18 0.19 0.17 0.13 0.31 0.24 0.20 0.10 0.10 0.11 0.13 0.23 0.13 0.21 0.45 0.59 0.69 0.71 0.79
0.05 0.06 0.08 0.09 0.09 0.09 0.06 0.07 0.06 0.06 0.06 0.08 0.08 0.07 0.08 0.15 0.26 0.27 0.06 0.06 0.19 0.16 0.06 0.00 0.00 0.00 0.00 0.01 0.12 0.28 0.31 0.39 0.47 0.40 0.43 0.24 0.19 0.27 0.44 0.41 0.43 0.58 0.25 0.37 0.46 0.64 0.24 0.12 0.18 0.27 0.38 0.53 0.45 0.44
0.07 0.07 0.07 0.08 0.06 0.04 0.04 0.04 0.04 0.03 0.04 0.07 0.11 0.16 0.16 0.13 0.26 0.40 0.13 0.05 0.05 0.07 0.04 0.01 0.00 0.00 0.00 0.00 0.03 0.08 0.12 0.26 0.29 0.32 0.35 0.32 0.35 0.47 0.78 0.47 0.49 0.90 0.45 0.51 0.79 1.42 0.68 0.57 0.65 0.59 0.41 0.42 0.34 0.35
0.06 0.06 0.05 0.05 0.05 0.03 0.03 0.04 0.05 0.06 0.05 0.07 0.10 0.17 0.33 0.31 0.33 0.48 0.28 0.05 0.01 0.04 0.12 0.08 0.00 0.00 0.00 0.00 0.00 0.02 0.04 0.10 0.17 0.16 0.10 0.12 0.20 0.53 0.97 0.47 0.54 0.64 0.83 0.76 0.92 1.19 1.01 0.85 0.62 0.46 0.32 0.27 0.20 0.14
0.06 0.04 0.04 0.04 0.04 0.02 0.02 0.03 0.03 0.04 0.05 0.07 0.09 0.12 0.34 0.55 0.64 0.99 1.44 0.54 0.06 0.04 0.15 0.15 0.07 0.02 0.00 0.00 0.00 0.01 0.05 0.10 0.11 0.06 0.04 0.07 0.17 0.60 1.03 0.65 0.65 0.73 0.98 0.84 0.81 0.85 0.68 0.55 0.38 0.28 0.19 0.17 0.13 0.07
0.06 0.04 0.04 0.05 0.06 0.04 0.02 0.02 0.03 0.05 0.07 0.08 0.11 0.13 0.36 0.69 0.67 0.44 0.32 0.15 0.04 0.17 0.36 0.16 0.08 0.05 0.01 0.01 0.01 0.02 0.06 0.10 0.11 0.09 0.06 0.07 0.19 0.45 0.81 0.77 0.67 0.72 0.74 0.59 0.51 0.38 0.29 0.29 0.20 0.13 0.08 0.06 0.04 0.01
0.08 0.06 0.04 0.04 0.04 0.04 0.04 0.03 0.03 0.04 0.07 0.10 0.14 0.23 0.58 1.00 0.73 0.39 0.08 0.00 0.04 0.32 0.20 0.13 0.11 0.17 0.10 0.05 0.10 0.09 0.14 0.16 0.11 0.06 0.04 0.14 0.35 0.38 0.50 0.47 0.34 0.29 0.30 0.22 0.18 0.09 0.10 0.07 0.03 0.01 0.00 0.00 0.00 0.00
0.08 0.05 0.03 0.04 0.05 0.05 0.04 0.04 0.05 0.07 0.12 0.20 0.41 0.88 1.83 1.26 0.54 0.36 0.13 0.09 0.11 0.25 0.16 0.08 0.06 0.25 0.18 0.15 0.20 0.13 0.13 0.16 0.10 0.09 0.04 0.11 0.19 0.33 0.39 0.15 0.11 0.06 0.06 0.09 0.05 0.01 0.00 0.00 0.00 0.00 0.00 0.00 0.00 0.01
0.07 0.04 0.03 0.05 0.07 0.06 0.07 0.09 0.10 0.18 0.38 0.72 1.05 1.26 1.26 0.60 0.24 0.55 1.02 0.89 0.74 0.39 0.16 0.10 0.17 0.11 0.26 0.35 0.14 0.24 0.09 0.09 0.12 0.06 0.08 0.05 0.07 0.08 0.02 0.02 0.01 0.00 0.00 0.00 0.01 0.02 0.01 0.01 0.01 0.01 0.01 0.01 0.01 0.01
0.07 0.03 0.05 0.07 0.08 0.09 0.21 0.24 0.33 0.57 0.89 1.17 1.04 0.69 0.48 0.43 0.42 0.77 0.55 0.45 0.28 0.13 0.03 0.06 0.24 0.25 0.22 0.45 0.09 0.15 0.19 0.11 0.11 0.08 0.13 0.10 0.06 0.06 0.01 0.00 0.00 0.00 0.00 0.00 0.01 0.02 0.01 0.01 0.01 0.01 0.01 0.01 0.01 0.01
0.09 0.10 0.12 0.16 0.20 0.28 0.36 0.50 0.53 0.75 0.81 0.49 0.32 0.53 0.86 0.71 0.57 0.45 0.21 0.11 0.07 0.04 0.03 0.03 0.15 0.15 0.20 0.48 0.13 0.08 0.19 0.22 0.25 0.24 0.17 0.11 0.08 0.03 0.00 0.00 0.00 0.00 0.00 0.00 0.00 0.01 0.01 0.01 0.01 0.01 0.01 0.01 0.02 0.02
0.08 0.17 0.29 0.37 0.39 0.47 0.64 0.65 0.61 0.54 0.31 0.37 0.26 0.60 0.50 0.41 0.34 0.20 0.09 0.04 0.05 0.01 0.01 0.02 0.09 0.10 0.26 0.35 0.22 0.08 0.13 0.24 0.08 0.10 0.09 0.06 0.05 0.02 0.01 0.00 0.00 0.00 0.00 0.00 0.01 0.01 0.01 0.01 0.01 0.00 0.01 0.02 0.01 0.02
0.26 0.31 0.23 0.30 0.38 0.46 0.64 0.79 0.72 0.55 0.45 0.47 0.35 0.34 0.16 0.12 0.05 0.04 0.04 0.02 0.01 0.00 0.01 0.01 0.04 0.12 0.20 0.11 0.15 0.06 0.06 0.03 0.05 0.05 0.04 0.06 0.03 0.02 0.01 0.00 0.00 0.01 0.00 0.01 0.01 0.01 0.01 0.01 0.01 0.01 0.01 0.01 0.01 0.02
0.31 0.18 0.20 0.29 0.36 0.54 0.65 0.65 0.70 0.44 0.43 0.30 0.07 0.04 0.01 0.02 0.02 0.03 0.01 0.01 0.02 0.02 0.02 0.02 0.03 0.12 0.05 0.07 0.03 0.03 0.03 0.02 0.03 0.05 0.05 0.05 0.02 0.01 0.01 0.01 0.01 0.01 0.01 0.01 0.01 0.01 0.01 0.01 0.00 0.01 0.01 0.01 0.01 0.01
0.11 0.19 0.28 0.24 0.21 0.36 0.53 0.83 0.79 0.37 0.19 0.10 0.02 0.03 0.06 0.07 0.08 0.06 0.04 0.04 0.07 0.10 0.04 0.04 0.06 0.08 0.05 0.02 0.01 0.02 0.04 0.03 0.04 0.03 0.03 0.02 0.01 0.01 0.01 0.01 0.01 0.01 0.01 0.01 0.01 0.00 0.00 0.00 0.00 0.01 0.01 0.00 0.00 0.00
0.10 0.24 0.41 0.28 0.32 0.43 0.73 0.88 0.65 0.48 0.20 0.09 0.03 0.04 0.06 0.04 0.06 0.08 0.10 0.12 0.16 0.14 0.08 0.04 0.04 0.04 0.06 0.01 0.01 0.01 0.04 0.04 0.04 0.05 0.02 0.01 0.01 0.01 0.01 0.01 0.01 0.01 0.01 0.00 0.01 0.00 0.00 0.00 0.00 0.00 0.01 0.00 0.00 0.00
0.09 0.21 0.32 0.30 0.37 0.63 0.69 0.55 0.44 0.23 0.04 0.04 0.04 0.06 0.04 0.06 0.07 0.10 0.11 0.06 0.08 0.02 0.01 0.01 0.00 0.00 0.02 0.03 0.03 0.04 0.05 0.05 0.03 0.02 0.03 0.02 0.02 0.02 0.01 0.01 0.01 0.01 0.00 0.01 0.01 0.01 0.02 0.03 0.02 0.00 0.00 0.00 0.00 0.00
0.11 0.25 0.43 0.42 0.28 0.30 0.49 0.33 0.10 0.02 0.04 0.05 0.08 0.08 0.07 0.08 0.08 0.07 0.03 0.01 0.00 0.00 0.00 0.00 0.00 0.01 0.02 0.03 0.02 0.03 0.02 0.03 0.05 0.05 0.04 0.02 0.01 0.00 0.00 0.01 0.01 0.01 0.01 0.02 0.01 0.00 0.01 0.01 0.01 0.00 0.00 0.01 0.02 0.02
0.28 0.32 0.38 0.28 0.08 0.06 0.10 0.09 0.01 0.00 0.03 0.04 0.06 0.05 0.05 0.07 0.08 0.04 0.01 0.00 0.00 0.00 0.00 0.01 0.05 0.06 0.04 0.04 0.01 0.01 0.01 0.01 0.01 0.02 0.04 0.04 0.01 0.01 0.03 0.01 0.00 0.00 0.01 0.00 0.00 0.00 0.00 0.00 0.00 0.00 0.00 0.00 0.01 0.02
0.23 0.31 0.22 0.13 0.07 0.03 0.01 0.01 0.00 0.00 0.02 0.04 0.04 0.01 0.05 0.04 0.02 0.01 0.00 0.00 0.02 0.02 0.04 0.06 0.06 0.07 0.03 0.02 0.01 0.01 0.03 0.03 0.03 0.00 0.01 0.03 0.02 0.00 0.00 0.00 0.01 0.01 0.01 0.00 0.00 0.00 0.00 0.00 0.00 0.00 0.00 0.00 0.00 0.00
0.13 0.09 0.07 0.04 0.02 0.00 0.00 0.00 0.00 0.00 0.02 0.03 0.03 0.01 0.02 0.04 0.02 0.01 0.00 0.01 0.04 0.08 0.05 0.04 0.03 0.02 0.00 0.01 0.00 0.00 0.00 0.00 0.00 0.00 0.00 0.00 0.02 0.01 0.00 0.00 0.00 0.00 0.00 0.00 0.00 0.01 0.01 0.00 0.00 0.00 0.00 0.00 0.00 0.00
0.05 0.05 0.03 0.02 0.00 0.00 0.02 0.02 0.01 0.01 0.01 0.02 0.00 0.00 0.01 0.00 0.00 0.00 0.01 0.02 0.07 0.07 0.02 0.01 0.00 0.00 0.00 0.00 0.00 0.00 0.00 0.00 0.00 0.00 0.00 0.00 0.00 0.00 0.00 0.00 0.00 0.00 0.00 0.00 0.00 0.00 0.00 0.00 0.00 0.00 0.00 0.00 0.01 0.01
0.00 0.02 0.03 0.00 0.00 0.04 0.02 0.01 0.00 0.00 0.01 0.01 0.00 0.00 0.00 0.00 0.00 0.00 0.01 0.02 0.05 0.04 0.01 0.01 0.00 0.00 0.00 0.00 0.00 0.00 0.00 0.00 0.00 0.00 0.00 0.00 0.00 0.00 0.00 0.00 0.00 0.00 0.00 0.00 0.00 0.00 0.00 0.00 0.00 0.00 0.00 0.00 0.01 0.00
0.02 0.05 0.03 0.02 0.00 0.00 0.00 0.01 0.00 0.00 0.01 0.00 0.00 0.00 0.00 0.00 0.00 0.00 0.00 0.03 0.04 0.04 0.03 0.02 0.02 0.01 0.00 0.01 0.00 0.00 0.00 0.00 0.00 0.00 0.00 0.00 0.00 0.00 0.00 0.00 0.00 0.00 0.00 0.01 0.01 0.00 0.01 0.01 0.00 0.01 0.00 0.01 0.01 0.00
0.01 0.02 0.04 0.03 0.01 0.00 0.00 0.00 0.00 0.00 0.00 0.00 0.00 0.00 0.01 0.00 0.00 0.01 0.01 0.02 0.03 0.03 0.04 0.03 0.01 0.00 0.00 0.00 0.00 0.00 0.00 0.00 0.00 0.00 0.00 0.00 0.00 0.00 0.00 0.00 0.00 0.01 0.00 0.00 0.00 0.00 0.01 0.01 0.00 0.01 0.01 0.01 0.01 0.01
0.00 0.02 0.03 0.01 0.02 0.01 0.00 0.00 0.00 0.00 0.00 0.00 0.00 0.01 0.00 0.00 0.01 0.05 0.08 0.03 0.03 0.04 0.02 0.01 0.00 0.00 0.00 0.00 0.00 0.00 0.00 0.00 0.00 0.00 0.00 0.00 0.00 0.00 0.00 0.00 0.00 0.00 0.00 0.00 0.00 0.00 0.00 0.00 0.00 0.00 0.00 0.01 0.01 0.01
0.00 0.01 0.01 0.01 0.00 0.00 0.00 0.00 0.00 0.01 0.01 0.01 0.00 0.00 0.00 0.00 0.04 0.10 0.10 0.07 0.03 0.02 0.01 0.00 0.00 0.00 0.00 0.00 0.00 0.00 0.00 0.00 0.00 0.00 0.00 0.00 0.00 0.00 0.00 0.00 0.00 0.00 0.00 0.00 0.00 0.00 0.00 0.00 0.00 0.00 0.00 0.00 0.00 0.01
0.00 0.00 0.00 0.00 0.00 0.00 0.01 0.01 0.01 0.01 0.02 0.02 0.00 0.01 0.02 0.06 0.08 0.08 0.08 0.04 0.03 0.01 0.00 0.01 0.01 0.00 0.00 0.00 0.00 0.00 0.00 0.00 0.00 0.00 0.00 0.01 0.02 0.01 0.00 0.00 0.00 0.00 0.00 0.00 0.01 0.01 0.01 0.01 0.01 0.00 0.00 0.00 0.00 0.00
0.00 0.00 0.00 0.00 0.01 0.02 0.05 0.04 0.03 0.03 0.02 0.01 0.01 0.03 0.06 0.16 0.23 0.12 0.08 0.07 0.06 0.04 0.01 0.01 0.01 0.01 0.00 0.00 0.00 0.00 0.00 0.00 0.00 0.00 0.00 0.00 0.01 0.01 0.00 0.00 0.00 0.00 0.00 0.00 0.00 0.00 0.01 0.00 0.00 0.00 0.00 0.00 0.00 0.00
0.00 0.00 0.00 0.00 0.03 0.06 0.06 0.04 0.03 0.02 0.01 0.01 0.00 0.01 0.05 0.12 0.15 0.18 0.13 0.09 0.05 0.02 0.01 0.01 0.01 0.00 0.00 0.00 0.00 0.00 0.01 0.00 0.00 0.00 0.00 0.00 0.00 0.00 0.00 0.00 0.00 0.00 0.00 0.00 0.00 0.00 0.00 0.00 0.00 0.00 0.00 0.00 0.00 0.00
0.00 0.00 0.00 0.00 0.04 0.05 0.08 0.03 0.02 0.03 0.03 0.02 0.02 0.01 0.01 0.01 0.04 0.07 0.10 0.12 0.09 0.05 0.03 0.01 0.01 0.01 0.00 0.00 0.00 0.00 0.00 0.00 0.00 0.00 0.00 0.00 0.00 0.00 0.00 0.00 0.00 0.00 0.00 0.00 0.00 0.00 0.00 0.00 0.00 0.00 0.00 0.00 0.00 0.00
0.00 0.00 0.00 0.00 0.01 0.02 0.03 0.02 0.01 0.02 0.02 0.02 0.04 0.04 0.02 0.01 0.02 0.04 0.05 0.07 0.10 0.06 0.03 0.01 0.00 0.00 0.00 0.00 0.00 0.00 0.00 0.00 0.00 0.00 0.00 0.00 0.00 0.00 0.00 0.00 0.00 0.00 0.00 0.00 0.00 0.00 0.00 0.00 0.00 0.00 0.00 0.00 0.00 0.00

GFSWCAN_prec_precacc24_099.txt.gz
Total_Precipitation_Accumulation
0.11 0.09 0.10 0.10 0.04 0.03 0.03 0.03 0.04 0.07 0.04 0.02 0.03 0.04 0.04 0.05 0.18 0.32 0.12 0.05 0.09 0.08 0.01 0.00 0.00 0.00 0.00 0.01 0.06 0.02 0.05 0.08 0.04 0.05 0.07 0.04 0.08 0.11 0.19 0.10 0.08 0.05 0.17 0.09 0.06 0.11 0.06 0.08 0.13 0.43 0.83 0.90 0.97 1.14
0.09 0.06 0.06 0.06 0.04 0.03 0.03 0.04 0.03 0.05 0.05 0.03 0.03 0.04 0.05 0.05 0.16 0.20 0.12 0.04 0.05 0.07 0.01 0.00 0.00 0.00 0.00 0.00 0.00 0.04 0.08 0.31 0.53 0.27 0.14 0.07 0.10 0.13 0.30 0.36 0.16 0.20 0.12 0.11 0.12 0.16 0.21 0.11 0.16 0.46 0.60 0.70 0.75 0.82
0.08 0.05 0.05 0.05 0.04 0.04 0.03 0.05 0.05 0.05 0.07 0.07 0.06 0.04 0.04 0.05 0.15 0.17 0.10 0.04 0.13 0.10 0.02 0.00 0.00 0.00 0.00 0.00 0.00 0.02 0.07 0.27 0.33 0.26 0.25 0.13 0.20 0.21 0.45 0.37 0.30 0.52 0.24 0.33 0.41 0.49 0.15 0.10 0.19 0.28 0.39 0.56 0.49 0.47
0.06 0.04 0.03 0.05 0.04 0.03 0.03 0.05 0.04 0.04 0.05 0.07 0.10 0.12 0.09 0.08 0.15 0.20 0.08 0.02 0.02 0.03 0.01 0.03 0.00 0.00 0.00 0.00 0.00 0.00 0.02 0.11 0.18 0.18 0.11 0.16 0.27 0.40 0.65 0.39 0.23 0.59 0.42 0.41 0.56 0.68 0.38 0.42 0.66 0.62 0.45 0.46 0.38 0.39
0.06 0.04 0.03 0.04 0.04 0.03 0.03 0.03 0.04 0.05 0.05 0.07 0.09 0.14 0.24 0.21 0.22 0.23 0.14 0.04 0.01 0.04 0.05 0.02 0.00 0.00 0.00 0.00 0.00 0.00 0.00 0.03 0.10 0.11 0.04 0.09 0.18 0.49 0.79 0.42 0.26 0.46 0.72 0.58 0.71 0.81 0.65 0.69 0.63 0.48 0.35 0.31 0.24 0.17
0.06 0.04 0.03 0.04 0.04 0.02 0.02 0.02 0.03 0.04 0.04 0.05 0.07 0.10 0.25 0.40 0.39 0.50 0.72 0.24 0.02 0.01 0.05 0.02 0.04 0.00 0.00 0.00 0.00 0.00 0.00 0.01 0.02 0.02 0.02 0.05 0.14 0.47 0.87 0.49 0.46 0.72 0.99 0.85 0.79 0.81 0.65 0.56 0.39 0.29 0.21 0.20 0.15 0.09
0.05 0.04 0.03 0.03 0.05 0.03 0.02 0.02 0.03 0.04 0.05 0.05 0.08 0.09 0.27 0.53 0.41 0.26 0.22 0.16 0.02 0.07 0.14 0.03 0.06 0.03 0.01 0.00 0.00 0.00 0.00 0.00 0.02 0.03 0.04 0.05 0.12 0.34 0.73 0.57 0.44 0.62 0.79 0.63 0.53 0.40 0.32 0.31 0.21 0.14 0.09 0.07 0.05 0.02
0.06 0.04 0.03 0.04 0.04 0.05 0.04 0.03 0.02 0.02 0.04 0.05 0.10 0.16 0.45 0.88 0.64 0.30 0.07 0.00 0.03 0.17 0.08 0.02 0.03 0.10 0.07 0.04 0.04 0.01 0.03 0.03 0.03 0.03 0.04 0.12 0.30 0.31 0.51 0.53 0.38 0.33 0.37 0.27 0.19 0.10 0.11 0.07 0.03 0.01 0.00 0.00 0.00 0.00
0.08 0.05 0.04 0.04 0.04 0.06 0.06 0.04 0.03 0.05 0.07 0.14 0.29 0.66 1.52 1.21 0.43 0.22 0.10 0.07 0.08 0.17 0.09 0.02 0.03 0.41 0.18 0.11 0.14 0.08 0.04 0.06 0.06 0.05 0.04 0.05 0.09 0.20 0.43 0.23 0.18 0.13 0.13 0.13 0.06 0.01 0.00 0.00 0.00 0.00 0.00 0.00 0.00 0.01
0.07 0.04 0.02 0.03 0.04 0.07 0.07 0.06 0.06 0.11 0.20 0.47 0.81 1.00 1.16 0.53 0.20 0.42 0.78 0.54 0.43 0.28 0.10 0.03 0.02 0.13 0.30 0.32 0.15 0.25 0.09 0.06 0.08 0.06 0.07 0.05 0.06 0.07 0.08 0.07 0.04 0.01 0.00 0.00 0.01 0.01 0.01 0.01 0.00 0.00 0.01 0.01 0.00 0.01
0.04 0.03 0.03 0.03 0.05 0.09 0.16 0.14 0.14 0.31 0.65 1.06 0.85 0.72 0.52 0.47 0.47 0.63 0.32 0.24 0.13 0.08 0.02 0.01 0.02 0.15 0.21 0.43 0.15 0.16 0.16 0.08 0.06 0.09 0.12 0.09 0.04 0.05 0.02 0.02 0.00 0.00 0.00 0.00 0.00 0.01 0.01 0.01 0.00 0.01 0.01 0.01 0.01 0.00
0.05 0.03 0.06 0.06 0.07 0.12 0.22 0.27 0.33 0.60 0.67 0.42 0.30 0.56 0.83 0.74 0.64 0.41 0.15 0.07 0.03 0.01 0.02 0.01 0.01 0.06 0.19 0.30 0.14 0.08 0.14 0.18 0.18 0.20 0.12 0.07 0.06 0.02 0.00 0.00 0.00 0.00 0.00 0.00 0.00 0.00 0.00 0.00 0.00 0.00 0.00 0.00 0.01 0.01
0.07 0.11 0.15 0.14 0.15 0.23 0.32 0.45 0.50 0.51 0.39 0.52 0.46 0.66 0.60 0.48 0.35 0.15 0.07 0.02 0.01 0.01 0.02 0.01 0.04 0.08 0.24 0.26 0.19 0.08 0.12 0.25 0.11 0.10 0.09 0.04 0.03 0.02 0.00 0.00 0.00 0.00 0.00 0.00 0.00 0.00 0.00 0.00 0.00 0.00 0.00 0.00 0.00 0.00
0.25 0.30 0.19 0.18 0.21 0.28 0.56 0.74 0.65 0.60 0.78 0.70 0.54 0.43 0.21 0.17 0.03 0.03 0.02 0.02 0.02 0.01 0.00 0.01 0.04 0.14 0.22 0.11 0.15 0.07 0.07 0.04 0.05 0.06 0.06 0.03 0.02 0.02 0.00 0.00 0.00 0.00 0.00 0.00 0.00 0.00 0.00 0.00 0.00 0.00 0.00 0.00 0.00 0.00
0.32 0.21 0.24 0.29 0.35 0.54 0.64 0.63 0.73 0.57 0.73 0.52 0.28 0.09 0.01 0.03 0.02 0.02 0.02 0.01 0.01 0.01 0.01 0.02 0.07 0.17 0.07 0.09 0.04 0.04 0.04 0.02 0.01 0.03 0.02 0.02 0.01 0.01 0.00 0.00 0.00 0.00 0.00 0.00 0.00 0.00 0.00 0.00 0.00 0.00 0.00 0.00 0.00 0.00
0.12 0.25 0.32 0.27 0.21 0.35 0.53 0.85 0.90 0.55 0.44 0.24 0.18 0.07 0.04 0.02 0.04 0.03 0.01 0.01 0.04 0.06 0.03 0.06 0.07 0.11 0.07 0.08 0.08 0.02 0.03 0.04 0.03 0.01 0.02 0.01 0.01 0.00 0.00 0.00 0.00 0.00 0.00 0.00 0.00 0.00 0.00 0.00 0.00 0.00 0.00 0.00 0.00 0.00
0.14 0.27 0.42 0.31 0.33 0.46 0.77 0.96 0.80 0.68 0.35 0.18 0.05 0.03 0.02 0.01 0.02 0.03 0.03 0.03 0.09 0.09 0.06 0.07 0.03 0.04 0.12 0.02 0.01 0.01 0.02 0.01 0.01 0.03 0.02 0.00 0.00 0.00 0.00 0.00 0.00 0.00 0.00 0.00 0.00 0.00 0.00 0.00 0.00 0.00 0.00 0.00 0.00 0.00
0.10 0.22 0.34 0.30 0.38 0.70 0.81 0.69 0.61 0.37 0.12 0.06 0.02 0.02 0.01 0.02 0.02 0.03 0.03 0.03 0.06 0.02 0.02 0.05 0.05 0.04 0.06 0.14 0.09 0.01 0.02 0.03 0.02 0.02 0.02 0.01 0.00 0.01 0.00 0.00 0.00 0.00 0.00 0.00 0.00 0.00 0.01 0.01 0.01 0.00 0.00 0.00 0.00 0.00
0.13 0.29 0.46 0.39 0.28 0.35 0.59 0.42 0.24 0.14 0.04 0.03 0.04 0.03 0.02 0.02 0.03 0.02 0.01 0.01 0.00 0.00 0.01 0.01 0.00 0.02 0.03 0.02 0.01 0.01 0.01 0.01 0.04 0.03 0.03 0.01 0.00 0.00 0.00 0.00 0.00 0.00 0.00 0.01 0.00 0.00 0.01 0.01 0.01 0.00 0.00 0.01 0.02 0.02
0.34 0.41 0.47 0.28 0.10 0.13 0.18 0.15 0.03 0.03 0.02 0.03 0.03 0.03 0.03 0.03 0.03 0.02 0.01 0.00 0.00 0.00 0.01 0.01 0.02 0.02 0.01 0.00 0.00 0.00 0.00 0.00 0.01 0.02 0.04 0.03 0.01 0.00 0.00 0.00 0.00 0.00 0.01 0.01 0.00 0.00 0.00 0.00 0.00 0.00 0.00 0.00 0.01 0.01
0.42 0.59 0.50 0.23 0.17 0.17 0.10 0.03 0.01 0.00 0.02 0.03 0.03 0.01 0.02 0.02 0.01 0.02 0.01 0.00 0.02 0.02 0.02 0.03 0.03 0.04 0.01 0.00 0.00 0.00 0.00 0.00 0.00 0.00 0.01 0.02 0.01 0.00 0.00 0.01 0.01 0.01 0.01 0.00 0.00 0.00 0.00 0.00 0.00 0.00 0.00 0.00 0.00 0.00
0.36 0.40 0.52 0.23 0.12 0.11 0.06 0.01 0.00 0.00 0.02 0.03 0.02 0.01 0.01 0.02 0.02 0.01 0.00 0.01 0.03 0.03 0.02 0.02 0.02 0.01 0.00 0.00 0.00 0.00 0.00 0.00 0.00 0.00 0.00 0.00 0.01 0.01 0.01 0.01 0.00 0.01 0.01 0.01 0.01 0.01 0.00 0.00 0.00 0.00 0.00 0.00 0.00 0.00
0.25 0.25 0.26 0.14 0.11 0.11 0.06 0.03 0.00 0.00 0.01 0.03 0.00 0.00 0.00 0.01 0.00 0.00 0.00 0.01 0.03 0.03 0.01 0.00 0.00 0.00 0.00 0.00 0.00 0.00 0.00 0.00 0.00 0.00 0.00 0.00 0.00 0.01 0.00 0.01 0.01 0.01 0.01 0.00 0.00 0.00 0.00 0.00 0.00 0.00 0.00 0.00 0.00 0.01
0.21 0.29 0.30 0.14 0.06 0.09 0.05 0.02 0.00 0.00 0.01 0.01 0.00 0.00 0.00 0.00 0.00 0.00 0.01 0.01 0.03 0.04 0.01 0.00 0.00 0.00 0.00 0.00 0.00 0.00 0.00 0.00 0.00 0.00 0.00 0.00 0.01 0.01 0.00 0.00 0.00 0.00 0.00 0.00 0.00 0.00 0.00 0.00 0.00 0.00 0.00 0.00 0.00 0.00
0.24 0.21 0.14 0.07 0.01 0.01 0.01 0.01 0.00 0.00 0.00 0.00 0.00 0.00 0.00 0.00 0.00 0.00 0.00 0.02 0.02 0.03 0.02 0.00 0.00 0.00 0.00 0.00 0.00 0.00 0.00 0.00 0.00 0.01 0.01 0.00 0.00 0.00 0.00 0.00 0.00 0.00 0.00 0.00 0.00 0.00 0.00 0.00 0.00 0.00 0.00 0.00 0.00 0.00
0.16 0.11 0.08 0.04 0.02 0.00 0.00 0.00 0.00 0.00 0.00 0.00 0.01 0.01 0.01 0.00 0.00 0.01 0.01 0.03 0.02 0.03 0.02 0.02 0.01 0.00 0.00 0.00 0.00 0.00 0.00 0.00 0.00 0.00 0.00 0.00 0.00 0.00 0.00 0.00 0.00 0.00 0.00 0.00 0.00 0.00 0.01 0.00 0.00 0.00 0.00 0.00 0.01 0.01
0.03 0.05 0.03 0.01 0.02 0.01 0.00 0.00 0.00 0.00 0.00 0.00 0.01 0.01 0.00 0.00 0.00 0.03 0.03 0.03 0.04 0.02 0.01 0.00 0.00 0.00 0.00 0.00 0.00 0.00 0.00 0.00 0.00 0.00 0.00 0.00 0.00 0.00 0.00 0.00 0.00 0.00 0.00 0.00 0.00 0.00 0.00 0.00 0.00 0.00 0.00 0.00 0.01 0.01
0.00 0.01 0.02 0.01 0.00 0.00 0.00 0.00 0.00 0.01 0.01 0.01 0.00 0.00 0.00 0.00 0.03 0.08 0.06 0.04 0.07 0.03 0.03 0.03 0.03 0.01 0.00 0.00 0.00 0.00 0.00 0.00 0.00 0.00 0.00 0.00 0.00 0.00 0.00 0.00 0.00 0.00 0.00 0.00 0.00 0.00 0.00 0.00 0.00 0.00 0.00 0.00 0.00 0.00
0.00 0.00 0.00 0.01 0.00 0.00 0.01 0.01 0.01 0.02 0.02 0.02 0.02 0.01 0.02 0.04 0.07 0.07 0.07 0.06 0.06 0.03 0.03 0.04 0.07 0.01 0.00 0.01 0.01 0.00 0.00 0.00 0.00 0.00 0.00 0.00 0.00 0.00 0.00 0.00 0.00 0.00 0.00 0.00 0.00 0.01 0.01 0.01 0.00 0.00 0.00 0.00 0.00 0.00
0.00 0.01 0.01 0.01 0.01 0.02 0.04 0.03 0.03 0.02 0.02 0.01 0.01 0.02 0.04 0.11 0.17 0.10 0.07 0.06 0.08 0.06 0.03 0.01 0.02 0.01 0.01 0.01 0.02 0.03 0.02 0.01 0.00 0.00 0.00 0.00 0.00 0.00 0.00 0.00 0.00 0.00 0.00 0.00 0.00 0.00 0.00 0.00 0.00 0.00 0.00 0.00 0.00 0.00
0.00 0.00 0.00 0.01 0.03 0.05 0.04 0.03 0.02 0.01 0.01 0.01 0.02 0.01 0.04 0.10 0.13 0.16 0.13 0.12 0.12 0.04 0.02 0.03 0.04 0.02 0.01 0.01 0.00 0.00 0.01 0.00 0.00 0.00 0.00 0.00 0.00 0.00 0.00 0.00 0.00 0.00 0.00 0.00 0.00 0.00 0.00 0.00 0.00 0.00 0.00 0.00 0.00 0.00
0.01 0.01 0.00 0.00 0.03 0.04 0.04 0.03 0.02 0.03 0.02 0.02 0.02 0.01 0.01 0.02 0.04 0.07 0.10 0.12 0.12 0.07 0.05 0.03 0.03 0.05 0.03 0.01 0.00 0.00 0.00 0.00 0.00 0.00 0.00 0.00 0.00 0.00 0.00 0.00 0.00 0.00 0.00 0.00 0.00 0.00 0.00 0.00 0.00 0.00 0.00 0.00 0.00 0.00
0.01 0.01 0.00 0.00 0.02 0.03 0.03 0.02 0.01 0.02 0.03 0.03 0.03 0.04 0.03 0.03 0.02 0.04 0.06 0.08 0.14 0.10 0.06 0.05 0.03 0.02 0.01 0.01 0.00 0.00 0.00 0.00 0.00 0.00 0.00 0.00 0.00 0.00 0.00 0.00 0.00 0.00 0.00 0.00 0.00 0.00 0.00 0.00 0.00 0.00 0.00 0.00 0.00 0.00